Regional Weather Roundup
Issued by NWS Green Bay, WI

Home | Current Version | Previous Version | Graphics & Text | Print | Product List | Glossary Off
Versions: 1 2 3 4 5 6 7 8 9 10 11 12 13 14 15 16 17 18 19 20 21 22 23 24 25 26 27 28 29 30 31 32 33 34 35 36 37 38 39 40 41 42 43 44 45 46 47 48 49 50

000
ASUS43 KGRB 242100
RWRGRB

NORTH-CENTRAL AND NORTHEAST WISCONSIN REGIONAL WEATHER ROUNDUP
NATIONAL WEATHER SERVICE GREEN BAY WI
400 PM CDT WED AUG 24 2016

WIZ005-009-010>012-018-019-242200-
NORTH CENTRAL WISCONSIN

CITY           SKY/WX    TMP DP  RH WIND       PRES   REMARKS
IRONWOOD       CLOUDY    76  67  73 W14       29.85S
MANITOWISH WTR NOT AVBL
ARBOR VITAE    NOT AVBL
EAGLE RIVER    NOT AVBL
LAND O LAKES   NOT AVBL
RHINELANDER    CLOUDY    74  67  78 W14G25    29.89S
PHILLIPS       CLOUDY    72  66  82 W6        29.90R
ANTIGO         NOT AVBL
TOMAHAWK       NOT AVBL
MERRILL        NOT AVBL
$$

WIZ013-073-242200-
NORTHEAST WISCONSIN

CITY           SKY/WX    TMP DP  RH WIND       PRES   REMARKS
IRON MOUNTAIN  CLOUDY    74  69  85 W6        29.83R
MARINETTE      NOT AVBL
$$

WIZ017-030-035>037-045-242200-
CENTRAL WISCONSIN

CITY           SKY/WX    TMP DP  RH WIND       PRES   REMARKS
MEDFORD        NOT AVBL
WAUSAU         PTSUNNY   79  66  64 W14       29.88R
MOSINEE        PTSUNNY   75  72  88 SW10      29.91S
MARSHFIELD     PTSUNNY   78  65  63 W12       29.91R
WISC RAPIDS    PTSUNNY   78  72  81 W13       29.92S
STEVENS POINT  NOT AVBL
WAUPACA        NOT AVBL
SHAWANO        NOT AVBL
CLINTONVILLE   CLOUDY    75  70  83 W9        29.88S
WAUTOMA        CLOUDY    76  72  87 W13       29.90S
$$

WIZ038-039-048-051-242200-
FOX VALLEY

CITY           SKY/WX    TMP DP  RH WIND       PRES   REMARKS
NWS GREEN BAY  CLOUDY    78  73  84 W8        29.86S
APPLETON       CLOUDY    79  68  69 SW13G21   29.87S
OSHKOSH        CLOUDY    80  71  74 VRB7G20   29.88R
FOND DU LAC    CLOUDY    80  72  76 W6        29.89S
$$

WIZ022-050-052-242200-
EAST CENTRAL WISCONSIN

CITY           SKY/WX    TMP DP  RH WIND       PRES   REMARKS
EPHRAIM        NOT AVBL
WASHINGTON ISL NOT AVBL
STURGEON BAY   LGT RAIN  75  70  84 W7          N/A
MANITOWOC      NOT AVBL
SHEBOYGAN      PTSUNNY   82  69  64 SW17      29.88S
$$

LMZ563-521-522-541>543-242200-
LAKESHORE

STATION/POSITION TIME  TEMP    WIND        PRES    VSBY  WAVE
                       AIR SEA DIR/SP/G                  HT/PER
                 (UTC) (F)     (DEG/KT/KT) (MB)    (MI)  (FT/S)
SHEBOYGAN LKSHOR 2000   73     220/ 16/ 24 1010.9F
KEWAUNEE LKSHORE 2000          170/ 12/ 14 1010.7S
N MID LAKE BUOY  1950   71 71  210/ 16/ 17 1009.6F         7/ 8
S GREEN BAY BUOY 2000   75 73  230/ 10/ 12 1010.5
SISTER BAY LKSHO 2007   76     250/ 13/ 17   N/A
CHAMBERS ISLAND  2040   71     190/  7/ 10 1010.5F
MENOMINEE LKSHOR 2000   71     270/  5/  8 1010.1R
$$




USA.gov is the U.S. government's official web portal to all federal, state and local government web resources and services.